Location: Cudham
(51.3000°N, 0.0667°E)
Time: 18:57:22
(UTC+00:00)

Nadezhda 3 Rocket - Pass Details

Date: 19 May 2025
Orbit: 957 x 997 km, 82.9° (Epoch: 22 June)

Event Time Altitude Azimuth Distance (km) Brightness Sun altitude
Exits shadow 23:06:39 19° 209° (SSW) 2,139 5.4 -17.9°
Maximum altitude 23:11:11 60° 285° (WNW) 1,109 4.4 -18.0°
Drops below altitude 10° 23:17:23 10° 5° (N) 2,739 7.5 -18.2°
Sets 23:19:58 0° 9° (N) 3,697 8.4 -18.3°
